����,���ϕ���(m/s),���ϕ���,�ő�u�ԕ���(m/s),�ő啗��������,�C��(��),���x(%),10���Ԉړ��ώZ�J��(mm),1���Ԉړ��ώZ�J��(mm),���J��(mm),�݌v�J��(mm)
2023-03-13T00:00:00+09:00,3.8,��쓌,9,�쓌,13.8,81.8,0.5,1,1,1
2023-03-13T00:01:00+09:00,3.9,��쓌,9,�쓌,13.7,82.9,0.5,1,0,1
2023-03-13T00:02:00+09:00,4,��쓌,9,�쓌,13.8,83.6,0.5,1,0,1
2023-03-13T00:03:00+09:00,4.2,��쓌,9.3,�쓌,13.8,83.6,0.5,1,0,1
2023-03-13T00:04:00+09:00,4.3,��쓌,10.6,�쓌,13.9,83.3,0.5,1,0,1
2023-03-13T00:05:00+09:00,4.2,��쓌,10.6,�쓌,13.9,83.1,0.5,1,0,1
2023-03-13T00:06:00+09:00,4.1,��쓌,10.6,�쓌,13.9,82.9,0.5,1,0,1
2023-03-13T00:07:00+09:00,3.9,��쓌,10.6,�쓌,13.8,83.3,0.5,1,0,1
2023-03-13T00:08:00+09:00,4.1,��쓌,10.6,�쓌,14,83.6,0,1,0,1
2023-03-13T00:09:00+09:00,4.6,��쓌,10.6,�쓌,14.1,82.9,0,1,0,1
2023-03-13T00:10:00+09:00,4.9,��쓌,10.6,�쓌,14.1,82,0,1,0,1
2023-03-13T00:11:00+09:00,5.2,��쓌,10.6,�쓌,14.2,81.6,0,1,0,1
2023-03-13T00:12:00+09:00,5.4,��쓌,10.6,�쓌,14.1,81.2,0,1,0,1
2023-03-13T00:13:00+09:00,5.2,��쓌,10.6,�쓌,14.1,81.2,0,1,0,1
2023-03-13T00:14:00+09:00,5,��쓌,10.6,��쓌,13.9,81.6,0,1,0,1
2023-03-13T00:15:00+09:00,5.1,��쓌,10.6,��쓌,13.9,82.3,0,1,0,1
2023-03-13T00:16:00+09:00,5.1,��쓌,10.6,��쓌,13.9,82.9,0,1,0,1
2023-03-13T00:17:00+09:00,5.2,��쓌,10.6,��쓌,13.9,83.3,0,1,0,1
2023-03-13T00:18:00+09:00,4.8,�쓌,9.6,���쓌,14,83.2,0,1,0,1
2023-03-13T00:19:00+09:00,4.8,�쓌,9.6,���쓌,14.2,83,0,1,0,1
2023-03-13T00:20:00+09:00,4.8,��쓌,9.6,���쓌,14.2,81.8,0.5,1.5,0.5,1.5
2023-03-13T00:21:00+09:00,4.6,�쓌,9.6,���쓌,14.1,81.7,0.5,1.5,0.5,1.5
2023-03-13T00:22:00+09:00,4.7,��쓌,9.6,���쓌,14,82.2,0.5,1.5,0.5,1.5
2023-03-13T00:23:00+09:00,4.7,�쓌,9.6,���쓌,14.1,82.5,0.5,1.5,0.5,1.5
2023-03-13T00:24:00+09:00,4.8,��쓌,9.6,���쓌,14,82.5,0.5,1.5,0.5,1.5
2023-03-13T00:25:00+09:00,4.7,��쓌,9.6,���쓌,14.1,83.1,0.5,1.5,0.5,1.5
2023-03-13T00:26:00+09:00,4.6,��쓌,9.6,���쓌,14.2,83.2,0.5,1.5,0.5,1.5
2023-03-13T00:27:00+09:00,4.3,��쓌,9.3,�쓌,14,82.8,0.5,1.5,0.5,1.5
2023-03-13T00:28:00+09:00,4.3,��쓌,9.3,�쓌,13.9,83,0.5,1.5,0.5,1.5
2023-03-13T00:29:00+09:00,4.2,��쓌,9,��쓌,13.9,83.9,0.5,1.5,0.5,1.5
2023-03-13T00:30:00+09:00,4.3,��쓌,10,��,14.1,84.5,0,1.5,0.5,1.5
2023-03-13T00:31:00+09:00,4.5,��쓌,10,��,14.2,83.8,0,1.5,0.5,1.5
2023-03-13T00:32:00+09:00,4.6,�쓌,12.2,��,14.3,83.3,0,1.5,0.5,1.5
2023-03-13T00:33:00+09:00,5.1,�쓌,13.6,�쓌,14.4,82.6,0,1.5,0.5,1.5
2023-03-13T00:34:00+09:00,5.2,�쓌,13.6,�쓌,14.4,81.6,0,1.5,0.5,1.5
2023-03-13T00:35:00+09:00,5.5,�쓌,13.6,�쓌,14.4,81.4,0,1.5,0.5,1.5
2023-03-13T00:36:00+09:00,6.1,��쓌,13.6,�쓌,14.5,81.5,0,1.5,0.5,1.5
2023-03-13T00:37:00+09:00,6.5,�쓌,13.6,�쓌,14.6,80.8,0,1.5,0.5,1.5
2023-03-13T00:38:00+09:00,7.1,��쓌,13.9,��쓌,14.7,80,0,1.5,0.5,1.5
2023-03-13T00:39:00+09:00,7.5,��쓌,13.9,��쓌,14.6,79.8,0,1.5,0.5,1.5
2023-03-13T00:40:00+09:00,7.4,��쓌,13.9,��쓌,14.7,79.7,0,1.5,0.5,1.5
2023-03-13T00:41:00+09:00,7.5,��쓌,13.9,��쓌,14.6,79.5,0,1.5,0.5,1.5
2023-03-13T00:42:00+09:00,7.2,��쓌,13.9,��쓌,14.5,79.6,0,1.5,0.5,1.5
2023-03-13T00:43:00+09:00,6.5,��쓌,13.9,��쓌,14.4,79.7,0,1.5,0.5,1.5
2023-03-13T00:44:00+09:00,6.3,��쓌,13.9,��쓌,14.5,80,0,1,0.5,1.5
2023-03-13T00:45:00+09:00,6,��쓌,13.9,��쓌,14.4,80.1,0,1,0.5,1.5
2023-03-13T00:46:00+09:00,6.1,��쓌,13.9,��쓌,14.6,80.5,0.5,1.5,1,2
2023-03-13T00:47:00+09:00,5.9,��쓌,13.9,��쓌,14.7,79.6,0.5,1.5,1,2
2023-03-13T00:48:00+09:00,5.5,��쓌,13.8,��쓌,14.6,79.1,0.5,1.5,1,2
2023-03-13T00:49:00+09:00,5.5,��쓌,13.8,��쓌,14.6,79.3,0.5,1.5,1,2
2023-03-13T00:50:00+09:00,5.8,��쓌,13.8,��쓌,14.7,79.4,0.5,1.5,1,2
2023-03-13T00:51:00+09:00,5.6,��쓌,13.8,��쓌,14.7,79,0.5,1.5,1,2
2023-03-13T00:52:00+09:00,5.6,��쓌,13.8,��쓌,14.7,78.6,0.5,1.5,1,2
2023-03-13T00:53:00+09:00,5.9,��쓌,13.8,��쓌,14.6,78.8,0.5,1.5,1,2
2023-03-13T00:54:00+09:00,6.2,��쓌,13.8,��쓌,14.6,79.2,0.5,1.5,1,2
2023-03-13T00:55:00+09:00,6.3,��쓌,13.8,��쓌,14.6,79.3,0.5,1.5,1,2
2023-03-13T00:56:00+09:00,5.9,��쓌,13.1,�쓌,14.5,79.5,0,1.5,1,2
2023-03-13T00:57:00+09:00,5.6,��쓌,13.1,�쓌,14.4,79.9,0.5,2,1.5,2.5
2023-03-13T00:58:00+09:00,5.5,��쓌,13.1,�쓌,14.3,80.7,0.5,1.5,1.5,2.5
2023-03-13T00:59:00+09:00,5.3,��쓌,11.5,��쓌,14.2,81.4,0.5,1.5,1.5,2.5
2023-03-13T01:00:00+09:00,4.9,��쓌,9.7,��쓌,14.2,81.7,0.5,1.5,1.5,2.5
2023-03-13T01:01:00+09:00,4.9,��쓌,9.7,��쓌,14.2,82.1,0.5,1.5,1.5,2.5
2023-03-13T01:02:00+09:00,4.8,��쓌,9.1,��쓌,14.2,82.4,0.5,1.5,1.5,2.5
2023-03-13T01:03:00+09:00,4.6,�쓌,9.1,��쓌,14.1,82.5,0.5,1.5,1.5,2.5
2023-03-13T01:04:00+09:00,4.5,�쓌,9.1,��쓌,14.2,82.5,0.5,1.5,1.5,2.5
2023-03-13T01:05:00+09:00,4.4,�쓌,9.1,��쓌,14.2,82.1,0.5,1.5,1.5,2.5
2023-03-13T01:06:00+09:00,4.1,�쓌,9.1,��쓌,14.1,82.3,0.5,1.5,1.5,2.5
2023-03-13T01:07:00+09:00,4,��쓌,9.1,��쓌,14.2,82.9,0,1.5,1.5,2.5
2023-03-13T01:08:00+09:00,3.9,��쓌,9.1,��쓌,14.1,82.7,0,1.5,1.5,2.5
2023-03-13T01:09:00+09:00,3.7,��쓌,7,��쓌,14,83.3,0,1.5,1.5,2.5
2023-03-13T01:10:00+09:00,3.7,��쓌,6.9,�쓌,14.1,83.8,0.5,2,2,3
2023-03-13T01:11:00+09:00,3.6,��쓌,6.9,�쓌,14,83.7,0.5,2,2,3
2023-03-13T01:12:00+09:00,3.8,��쓌,7.6,�쓌,14.1,84,0.5,2,2,3
2023-03-13T01:13:00+09:00,3.9,��쓌,8.7,��쓌,14.1,83.9,0.5,2,2,3
2023-03-13T01:14:00+09:00,4.2,��,10.8,��쓌,14.2,83.8,1,2.5,2.5,3.5
2023-03-13T01:15:00+09:00,4.2,��,10.8,��쓌,14.1,83.6,1,2.5,2.5,3.5
2023-03-13T01:16:00+09:00,4.5,��,10.8,��쓌,14.1,83.8,1,2.5,2.5,3.5
2023-03-13T01:17:00+09:00,4.7,��,10.8,��쓌,14.3,83.9,1,2.5,2.5,3.5
2023-03-13T01:18:00+09:00,4.8,��쓌,10.8,��쓌,14.1,83.6,1,2.5,2.5,3.5
2023-03-13T01:19:00+09:00,4.8,��쓌,10.8,��쓌,14.1,83.9,2,3.5,3.5,4.5
2023-03-13T01:20:00+09:00,4.8,��쓌,10.8,��쓌,13.9,83.9,1.5,3,3.5,4.5
2023-03-13T01:21:00+09:00,5,��쓌,10.8,��쓌,13.9,84.7,2,3.5,4,5
2023-03-13T01:22:00+09:00,4.8,��쓌,10.8,��쓌,13.9,85.8,2,3.5,4,5
2023-03-13T01:23:00+09:00,4.6,��쓌,10.8,��쓌,13.9,86.1,2,3.5,4,5
2023-03-13T01:24:00+09:00,4.5,��쓌,10.1,��쓌,14,86.2,1.5,3.5,4,5
2023-03-13T01:25:00+09:00,4.5,��쓌,10.1,��쓌,14,86.1,1.5,3.5,4,5
2023-03-13T01:26:00+09:00,4.6,�쓌,10.1,��쓌,14.1,85.5,1.5,3.5,4,5
2023-03-13T01:27:00+09:00,4.6,�쓌,10.1,��쓌,14.1,85.1,2,4,4.5,5.5
2023-03-13T01:28:00+09:00,4.6,��쓌,10.1,��쓌,14,84.7,2,4,4.5,5.5
2023-03-13T01:29:00+09:00,4.4,��쓌,10.1,��쓌,13.7,85.2,1,4,4.5,5.5
2023-03-13T01:30:00+09:00,4.3,��쓌,10.1,��쓌,13.7,86.6,1.5,4.5,5,6
2023-03-13T01:31:00+09:00,4.1,��쓌,10.1,��쓌,13.7,87.5,1,4.5,5,6
2023-03-13T01:32:00+09:00,4.5,��쓌,10.1,��쓌,13.9,88.4,1.5,5,5.5,6.5
2023-03-13T01:33:00+09:00,4.5,��쓌,10.1,��쓌,14,87.9,1.5,5,5.5,6.5
2023-03-13T01:34:00+09:00,4.2,�쓌,9.7,�쓌,13.8,86.7,2,5.5,6,7
2023-03-13T01:35:00+09:00,4.2,��쓌,9.7,�쓌,13.6,87.1,2.5,6,6.5,7.5
2023-03-13T01:36:00+09:00,4,��쓌,9.7,�쓌,13.7,88.3,3,6.5,7,8
2023-03-13T01:37:00+09:00,3.9,��쓌,9.7,�쓌,13.8,88.7,3,7,7.5,8.5
2023-03-13T01:38:00+09:00,3.9,��쓌,9.7,�쓌,13.8,88.3,3.5,7.5,8,9
2023-03-13T01:39:00+09:00,4,�쓌,9.7,�쓌,13.7,88,4,8,8.5,9.5
2023-03-13T01:40:00+09:00,4.1,��쓌,9.7,�쓌,13.6,88.2,3.5,8,8.5,9.5
2023-03-13T01:41:00+09:00,3.7,��쓌,9.7,�쓌,13.5,88.7,3.5,8,8.5,9.5
2023-03-13T01:42:00+09:00,3.1,��쓌,7.3,��쓌,13.5,89.4,3.5,8.5,9,10
2023-03-13T01:43:00+09:00,2.8,��쓌,7.3,��쓌,13.3,89.7,4,9,9.5,10.5
2023-03-13T01:44:00+09:00,2.7,��,7.3,��쓌,13.2,90.2,4,9.5,10,11
2023-03-13T01:45:00+09:00,2.4,��,6.3,��쓌,13.2,91,4.5,10.5,11,12
2023-03-13T01:46:00+09:00,2.2,��쐼,6.1,�k�k��,13.1,92,4.5,10.5,11.5,12.5
2023-03-13T01:47:00+09:00,2.4,�쐼,8.3,�k�k��,13.1,92.6,4,10.5,11.5,12.5
2023-03-13T01:48:00+09:00,2.7,��,11.1,�k,12.7,92.4,4,11,12,13
2023-03-13T01:49:00+09:00,3.2,�k��,11.1,�k,12.2,90.1,4.5,12,13,14
2023-03-13T01:50:00+09:00,3.7,�k�k��,11.9,�k�k��,11.7,88.2,5,12.5,13.5,14.5
2023-03-13T01:51:00+09:00,4.5,�k�k��,11.9,�k�k��,11.4,87.2,5,12.5,13.5,14.5
2023-03-13T01:52:00+09:00,5.5,�k�k��,15.8,�k,11,86.8,5,13,14,15
2023-03-13T01:53:00+09:00,6.3,�k,15.8,�k,10.8,86.6,5,13.5,14.5,15.5
2023-03-13T01:54:00+09:00,6.9,�k,15.8,�k,10.6,87.4,5.5,14.5,15.5,16.5
2023-03-13T01:55:00+09:00,7.9,�k,15.8,�k,10.4,88,5,15,16,17
2023-03-13T01:56:00+09:00,8.6,�k,15.8,�k,10.2,88.2,5.5,16,17,18
2023-03-13T01:57:00+09:00,9,�k,15.8,�k,10.1,88.8,6,16,17.5,18.5
2023-03-13T01:58:00+09:00,9.3,�k,15.8,�k,10,89.4,6.5,17,18.5,19.5
2023-03-13T01:59:00+09:00,9.5,�k,15.8,�k,10,90.3,6,17.5,19,20
2023-03-13T02:00:00+09:00,9.6,�k,15.8,�k,9.9,91,6.5,18.5,20,21
2023-03-13T02:01:00+09:00,9.6,�k,15.8,�k,9.8,91.6,7,19,20.5,21.5
2023-03-13T02:02:00+09:00,9.5,�k,15.1,�k,9.7,91.9,7,19.5,21,22
2023-03-13T02:03:00+09:00,9.2,�k,15.1,�k,9.7,92.2,7,20,21.5,22.5
2023-03-13T02:04:00+09:00,9.2,�k,15.1,�k,9.6,92.4,7,21,22.5,23.5
2023-03-13T02:05:00+09:00,8.9,�k,15.1,�k,9.5,92.6,8,22.5,24,25
2023-03-13T02:06:00+09:00,8.7,�k,15.1,�k,9.4,92.8,7.5,23,24.5,25.5
2023-03-13T02:07:00+09:00,8.4,�k,15.1,�k,9.4,93.1,7.5,23.5,25,26
2023-03-13T02:08:00+09:00,7.9,�k,14.9,�k,9.4,93.4,7,24,25.5,26.5
2023-03-13T02:09:00+09:00,7.4,�k,14.9,�k,9.4,93.9,7,24.5,26,27
2023-03-13T02:10:00+09:00,6.9,�k,14.9,�k,9.3,94.2,6,24,26,27
2023-03-13T02:11:00+09:00,6.4,�k,14.9,�k,9.3,94.4,6.5,25,27,28
2023-03-13T02:12:00+09:00,6.1,�k,12.9,�k�k��,9.2,94.3,6.5,25.5,27.5,28.5
2023-03-13T02:13:00+09:00,6.1,�k,12.9,�k�k��,9.1,94.3,7,26.5,28.5,29.5
2023-03-13T02:14:00+09:00,6.1,�k,12.9,�k�k��,9.1,94.3,7,27,29.5,30.5
2023-03-13T02:15:00+09:00,6,�k�k��,10.5,�k,9.1,94.2,6,27.5,30,31
2023-03-13T02:16:00+09:00,5.6,�k�k��,9.9,�k,9.2,94.4,5.5,27.5,30,31
2023-03-13T02:17:00+09:00,5.6,�k�k��,9.9,�k,9.2,94.6,5.5,28,30.5,31.5
2023-03-13T02:18:00+09:00,5.8,�k�k��,10.1,�k�k��,9.2,94.2,5,28,30.5,31.5
2023-03-13T02:19:00+09:00,5.9,�k�k��,10.1,�k�k��,9.2,93.8,5.5,28,31.5,32.5
2023-03-13T02:20:00+09:00,5.9,�k�k��,10.1,�k�k��,9.2,93.4,5.5,28,31.5,32.5
2023-03-13T02:21:00+09:00,6.1,�k�k��,10.1,�k�k��,9.2,93.2,5,28,32,33
2023-03-13T02:22:00+09:00,6.1,�k�k��,10.1,�k�k��,9.2,93,5,28.5,32.5,33.5
2023-03-13T02:23:00+09:00,5.8,�k�k��,10.1,�k�k��,9.2,92.7,4,28.5,32.5,33.5
2023-03-13T02:24:00+09:00,5.3,�k�k��,10.1,�k�k��,9.2,92.3,3.5,29,33,34
2023-03-13T02:25:00+09:00,5.1,�k�k��,10.1,�k�k��,9.2,92,3,29,33,34
2023-03-13T02:26:00+09:00,5.1,�k�k��,10.1,�k�k��,9.1,91.8,3,29,33,34
2023-03-13T02:27:00+09:00,4.8,�k,10.1,�k�k��,9.1,91.8,2.5,28.5,33,34
2023-03-13T02:28:00+09:00,4.4,�k,9,�k�k��,9.2,91.8,2.5,28.5,33,34
2023-03-13T02:29:00+09:00,4.2,�k,9,�k�k��,9.2,91.5,2,29,33.5,34.5
2023-03-13T02:30:00+09:00,4.2,�k,8.8,�k�k��,9.1,91.2,2,28.5,33.5,34.5
2023-03-13T02:31:00+09:00,4,�k,8.6,�k,9.2,91.1,1.5,28.5,33.5,34.5
2023-03-13T02:32:00+09:00,3.8,�k,8.3,�k,9.2,91.1,1,28,33.5,34.5
2023-03-13T02:33:00+09:00,3.9,�k,8.3,�k,9.2,90.5,1,28,33.5,34.5
2023-03-13T02:34:00+09:00,4.1,�k,8.3,�k,9.1,90.1,0.5,27.5,33.5,34.5
2023-03-13T02:35:00+09:00,4.2,�k,8.3,�k,9.1,90,0.5,27,33.5,34.5
2023-03-13T02:36:00+09:00,4.4,�k,8.6,�k,9,90.2,1,27,34,35
2023-03-13T02:37:00+09:00,4.5,�k,8.6,�k,9.1,90.3,1,26.5,34,35
2023-03-13T02:38:00+09:00,4.7,�k,8.6,�k,9.1,90.2,1,26,34,35
2023-03-13T02:39:00+09:00,4.8,�k,8.6,�k,9.1,89.9,0.5,25.5,34,35
2023-03-13T02:40:00+09:00,4.8,�k,8.6,�k,9.1,89.5,1,26,34.5,35.5
2023-03-13T02:41:00+09:00,4.9,�k,8.6,�k,9,89.2,1,26,34.5,35.5
2023-03-13T02:42:00+09:00,4.9,�k,9.4,�k�k��,9,89,1,25.5,34.5,35.5
2023-03-13T02:43:00+09:00,4.8,�k,9.4,�k�k��,9,88.7,1,25,34.5,35.5
2023-03-13T02:44:00+09:00,4.7,�k,9.4,�k�k��,9,88.3,1,24.5,34.5,35.5
2023-03-13T02:45:00+09:00,4.6,�k,9.4,�k�k��,8.9,88.4,1,23.5,34.5,35.5
2023-03-13T02:46:00+09:00,4.5,�k,9.4,�k�k��,8.8,88.6,1,23.5,35,36
2023-03-13T02:47:00+09:00,4.6,�k,9.4,�k�k��,8.8,89,1,23.5,35,36
2023-03-13T02:48:00+09:00,4.7,�k,9.4,�k�k��,8.9,89.3,1,23,35,36
2023-03-13T02:49:00+09:00,4.7,�k,9.4,�k�k��,8.9,89.4,1,22,35,36
2023-03-13T02:50:00+09:00,4.6,�k,9.4,�k�k��,8.8,89.2,1,22,35.5,36.5
2023-03-13T02:51:00+09:00,4.6,�k,9.4,�k�k��,8.8,89.2,1,22,35.5,36.5
2023-03-13T02:52:00+09:00,4.3,�k,8.6,�k,8.8,89.4,1,21.5,35.5,36.5
2023-03-13T02:53:00+09:00,4.4,�k,8.6,�k,8.8,89.4,1.5,21.5,36,37
2023-03-13T02:54:00+09:00,4.3,�k�k��,8.6,�k,8.8,89.5,1.5,20.5,36,37
2023-03-13T02:55:00+09:00,4.2,�k�k��,8.6,�k,8.8,89.5,2,20.5,36.5,37.5
2023-03-13T02:56:00+09:00,3.9,�k�k��,8.6,�k,8.8,89.6,1.5,19.5,36.5,37.5
2023-03-13T02:57:00+09:00,3.6,�k�k��,7.3,�k,8.8,89.6,1.5,19,36.5,37.5
2023-03-13T02:58:00+09:00,3.4,�k�k��,7.2,�k�k��,8.8,89.6,1.5,18,36.5,37.5
2023-03-13T02:59:00+09:00,3.1,�k�k��,6.3,�k�k��,8.8,89.5,1.5,17.5,36.5,37.5
2023-03-13T03:00:00+09:00,2.9,�k�k��,5.9,�k�k��,8.8,89.3,1,16.5,36.5,37.5
2023-03-13T03:01:00+09:00,2.6,�k�k��,5,�k�k��,8.8,89.2,1,16,36.5,37.5
2023-03-13T03:02:00+09:00,2.6,�k�k��,5,�k�k��,8.7,89.4,1,15.5,36.5,37.5
2023-03-13T03:03:00+09:00,2.6,�k�k��,5.8,�k,8.8,89.8,1,15.5,37,38
2023-03-13T03:04:00+09:00,2.7,�k�k��,5.8,�k,8.8,89.9,1,14.5,37,38
2023-03-13T03:05:00+09:00,2.8,�k,5.8,�k,8.9,90.1,0.5,13,37,38
2023-03-13T03:06:00+09:00,2.9,�k,6.9,�k,8.8,89.6,0.5,12.5,37,38
2023-03-13T03:07:00+09:00,3.1,�k,7.1,�k,8.8,89.3,0.5,12,37,38
2023-03-13T03:08:00+09:00,3.2,�k,7.1,�k,8.8,89.4,0.5,11.5,37,38
2023-03-13T03:09:00+09:00,3.4,�k,7.1,�k,8.7,89.5,0.5,11,37,38
2023-03-13T03:10:00+09:00,3.6,�k,7.1,�k,8.6,89.5,0.5,11,37,38
2023-03-13T03:11:00+09:00,3.8,�k,7.1,�k,8.5,89.8,0.5,10,37,38
2023-03-13T03:12:00+09:00,3.8,�k,7.1,�k,8.5,90.3,0.5,9.5,37,38
2023-03-13T03:13:00+09:00,3.8,�k,7.1,�k,8.5,90.8,0,8.5,37,38
2023-03-13T03:14:00+09:00,3.6,�k,7.1,�k,8.6,91.2,0,7.5,37,38
2023-03-13T03:15:00+09:00,3.5,�k,7.1,�k,8.6,91.5,0,7,37,38
2023-03-13T03:16:00+09:00,3.3,�k,7.1,�k,8.6,91.6,0,7,37,38
2023-03-13T03:17:00+09:00,3,�k,7.1,�k,8.6,91.4,0,6.5,37,38
2023-03-13T03:18:00+09:00,2.7,�k,6.4,�k�k��,8.5,91.3,0,6.5,37,38
2023-03-13T03:19:00+09:00,2.4,�k�k��,6.4,�k�k��,8.6,91.4,0,5.5,37,38
2023-03-13T03:20:00+09:00,2.1,�k�k��,6.4,�k�k��,8.6,91.3,0,5.5,37,38
2023-03-13T03:21:00+09:00,1.9,�k�k��,5,�k�k��,8.6,91.3,0,5,37,38
2023-03-13T03:22:00+09:00,1.6,�k�k��,3.9,�k�k��,8.7,91.3,0,4.5,37,38
2023-03-13T03:23:00+09:00,1.5,�k,3.9,�k�k��,8.6,91.4,0,4.5,37,38
2023-03-13T03:24:00+09:00,1.4,�k,3.9,�k�k��,8.5,91,0,4,37,38
2023-03-13T03:25:00+09:00,1.4,�k,3.5,�k�k��,8.5,91,0,4,37,38
2023-03-13T03:26:00+09:00,1.3,�k�k��,3.5,�k�k��,8.5,91.1,0.5,4.5,37.5,38.5
2023-03-13T03:27:00+09:00,1.2,�k�k��,3.2,�k�k��,8.6,91.3,0.5,4.5,37.5,38.5
2023-03-13T03:28:00+09:00,1.2,�k��,2.3,��,8.6,91.5,0.5,4.5,37.5,38.5
2023-03-13T03:29:00+09:00,1.2,�k��,2.3,��,8.6,91.1,0.5,4,37.5,38.5
2023-03-13T03:30:00+09:00,1.2,���k��,2.3,��,8.6,91,0.5,4,37.5,38.5
2023-03-13T03:31:00+09:00,1.2,���k��,2.3,��,8.6,90.9,0.5,4,37.5,38.5
2023-03-13T03:32:00+09:00,1.3,���k��,2.3,��,8.6,90.8,0.5,4,37.5,38.5
2023-03-13T03:33:00+09:00,1.3,���k��,2.3,��,8.6,90.7,0.5,4,37.5,38.5
2023-03-13T03:34:00+09:00,1.4,���k��,2.8,�k��,8.6,90.6,0.5,4,37.5,38.5
2023-03-13T03:35:00+09:00,1.4,���k��,3,�k��,8.5,90.4,0.5,4,37.5,38.5
2023-03-13T03:36:00+09:00,1.4,���k��,3,�k��,8.5,90.3,0,3.5,37.5,38.5
2023-03-13T03:37:00+09:00,1.3,���k��,3,�k��,8.5,90.4,0,3.5,37.5,38.5
2023-03-13T03:38:00+09:00,1.2,���k��,3,�k��,8.4,90.5,0,3.5,37.5,38.5
2023-03-13T03:39:00+09:00,1.2,���k��,3,�k��,8.5,90.9,0,3.5,37.5,38.5
2023-03-13T03:40:00+09:00,1.2,���k��,3,�k��,8.4,90.8,0,3,37.5,38.5
2023-03-13T03:41:00+09:00,1.1,���k��,3,�k��,8.5,91.2,0,3,37.5,38.5
2023-03-13T03:42:00+09:00,1,���k��,3,�k��,8.4,91.3,0,3,37.5,38.5
2023-03-13T03:43:00+09:00,0.9,���k��,3,�k��,8.5,91.7,0,3,37.5,38.5
2023-03-13T03:44:00+09:00,0.7,��,3,�k��,8.5,91.9,0,3,37.5,38.5
2023-03-13T03:45:00+09:00,0.6,��,1.5,���쓌,8.5,91.9,0,3,37.5,38.5
2023-03-13T03:46:00+09:00,0.7,��,2.5,��쓌,8.4,92,0,2.5,37.5,38.5
2023-03-13T03:47:00+09:00,0.9,���쓌,2.7,��쓌,8.4,92.2,0,2.5,37.5,38.5
2023-03-13T03:48:00+09:00,0.9,���쓌,2.7,��쓌,8.4,92.4,0,2.5,37.5,38.5
2023-03-13T03:49:00+09:00,0.8,���쓌,2.7,��쓌,8.5,92.9,0,2.5,37.5,38.5
2023-03-13T03:50:00+09:00,0.8,�쓌,2.7,��쓌,8.6,93.6,0,2,37.5,38.5
2023-03-13T03:51:00+09:00,0.8,�쓌,2.7,��쓌,8.5,93.7,0,2,37.5,38.5
2023-03-13T03:52:00+09:00,0.9,�쓌,2.7,��쓌,8.4,93.4,0,2,37.5,38.5
2023-03-13T03:53:00+09:00,1,�쓌,2.7,��쓌,8.3,93.4,0,1.5,37.5,38.5
2023-03-13T03:54:00+09:00,1.1,�쓌,2.7,��쓌,8.3,93.6,0,1.5,37.5,38.5
2023-03-13T03:55:00+09:00,1.1,�쓌,2.7,��쓌,8.3,93.9,0,1,37.5,38.5
2023-03-13T03:56:00+09:00,1,�쓌,2.7,��쓌,8.3,94.2,0,1,37.5,38.5
2023-03-13T03:57:00+09:00,1,�쓌,2.4,���쓌,8.3,94.3,0,1,37.5,38.5
2023-03-13T03:58:00+09:00,0.9,�쓌,2.4,���쓌,8.3,94.7,0,1,37.5,38.5
2023-03-13T03:59:00+09:00,0.9,��쓌,2.4,���쓌,8.3,95,0,1,37.5,38.5
2023-03-13T04:00:00+09:00,0.9,��쓌,2.4,���쓌,8.3,95,0,1,37.5,38.5
2023-03-13T04:01:00+09:00,0.8,��쓌,2.4,���쓌,8.3,95.1,0,1,37.5,38.5
2023-03-13T04:02:00+09:00,0.7,�쓌,2.4,���쓌,8.4,95.3,0,1,37.5,38.5
2023-03-13T04:03:00+09:00,0.5,��쓌,2,��쓌,8.2,95.4,0,0.5,37.5,38.5
2023-03-13T04:04:00+09:00,0.5,��쓌,2,��쓌,8.2,95.2,0,0.5,37.5,38.5
2023-03-13T04:05:00+09:00,0.4,��쓌,1.5,���쓌,8.3,95.4,0,0.5,37.5,38.5
2023-03-13T04:06:00+09:00,0.3,��쓌,1.4,��쓌,8.3,95.6,0,0.5,37.5,38.5
2023-03-13T04:07:00+09:00,0.3,��쓌,1.6,�쓌,8.2,95.5,0,0.5,37.5,38.5
2023-03-13T04:08:00+09:00,0.4,�쓌,2.2,�쓌,8.2,95.5,0,0.5,37.5,38.5
2023-03-13T04:09:00+09:00,0.7,�쓌,3.6,���쓌,8.2,95.5,0,0.5,37.5,38.5
2023-03-13T04:10:00+09:00,0.9,�쓌,3.7,���쓌,8.2,95.6,0,0.5,37.5,38.5
2023-03-13T04:11:00+09:00,1.1,�쓌,3.7,���쓌,8.2,95.7,0.5,1,38,39
2023-03-13T04:12:00+09:00,1.2,�쓌,3.7,���쓌,8.2,95.6,0.5,1,38,39
2023-03-13T04:13:00+09:00,1.4,�쓌,3.7,���쓌,8.2,95.7,0.5,1,38,39
2023-03-13T04:14:00+09:00,1.7,�쓌,4.5,�쓌,8.2,95.7,0.5,1,38,39
2023-03-13T04:15:00+09:00,1.9,�쓌,4.5,�쓌,8.2,95.7,0.5,1,38,39
2023-03-13T04:16:00+09:00,2.2,�쓌,4.5,�쓌,8.3,95.8,0.5,1,38,39
2023-03-13T04:17:00+09:00,2.4,�쓌,4.5,�쓌,8.3,95.8,0.5,1,38,39
2023-03-13T04:18:00+09:00,2.6,��쓌,4.5,�쓌,8.2,95.8,0.5,1,38,39
2023-03-13T04:19:00+09:00,2.6,��쓌,4.5,�쓌,8.2,95.8,0.5,1,38,39
2023-03-13T04:20:00+09:00,2.7,��쓌,5.9,��쓌,8.3,95.8,0.5,1,38,39
2023-03-13T04:21:00+09:00,2.8,��쓌,5.9,��쓌,8.2,95.8,0,1,38,39
2023-03-13T04:22:00+09:00,3,��쓌,5.9,��쓌,8.3,95.9,0,1,38,39
2023-03-13T04:23:00+09:00,3.1,��쓌,5.9,��쓌,8.3,95.9,0,1,38,39
2023-03-13T04:24:00+09:00,3.1,��쓌,5.9,��쓌,8.3,95.9,0,1,38,39
2023-03-13T04:25:00+09:00,3.2,��쓌,5.9,��쓌,8.3,95.9,0,1,38,39
2023-03-13T04:26:00+09:00,3.2,��쓌,5.9,��쓌,8.3,95.9,0,0.5,38,39
2023-03-13T04:27:00+09:00,3.2,��쓌,5.9,��쓌,8.3,95.9,0,0.5,38,39
2023-03-13T04:28:00+09:00,3.2,��쓌,5.9,��쓌,8.3,95.9,0,0.5,38,39
2023-03-13T04:29:00+09:00,3.3,��쓌,5.9,��쓌,8.3,95.9,0,0.5,38,39
2023-03-13T04:30:00+09:00,3.2,��쓌,5.8,�쓌,8.3,95.9,0,0.5,38,39
2023-03-13T04:31:00+09:00,3.1,��쓌,5.8,�쓌,8.4,95.9,0,0.5,38,39
2023-03-13T04:32:00+09:00,3.1,��쓌,5.8,�쓌,8.4,95.9,0,0.5,38,39
2023-03-13T04:33:00+09:00,3,��쓌,5.8,�쓌,8.4,95.9,0,0.5,38,39
2023-03-13T04:34:00+09:00,2.9,��쓌,5.8,�쓌,8.5,95.9,0,0.5,38,39
2023-03-13T04:35:00+09:00,2.8,��쓌,4.8,��쓌,8.5,96,0,0.5,38,39
2023-03-13T04:36:00+09:00,2.7,��쓌,4.8,��쓌,8.5,95.9,0.5,1,38.5,39.5
2023-03-13T04:37:00+09:00,2.6,��쓌,4.8,��쓌,8.5,95.8,0.5,1,38.5,39.5
2023-03-13T04:38:00+09:00,2.6,��쓌,4.8,��쓌,8.6,95.9,0.5,1,38.5,39.5
2023-03-13T04:39:00+09:00,2.5,��쓌,4.3,��,8.7,96,0.5,1,38.5,39.5
2023-03-13T04:40:00+09:00,2.4,��쓌,4.3,��,8.8,96,0.5,1,38.5,39.5
2023-03-13T04:41:00+09:00,2.5,��쓌,5.4,��,8.8,95.8,0.5,1,38.5,39.5
2023-03-13T04:42:00+09:00,2.5,��쓌,5.4,��,8.9,95.7,0.5,1,38.5,39.5
2023-03-13T04:43:00+09:00,2.3,��,5.4,��,8.9,95.4,0.5,1,38.5,39.5
2023-03-13T04:44:00+09:00,2.2,��,5.4,��,8.9,94.9,0.5,1,38.5,39.5
2023-03-13T04:45:00+09:00,2.2,��,5.4,��,8.9,94.2,0.5,1,38.5,39.5
2023-03-13T04:46:00+09:00,2.1,��,5.4,��,9,93.8,0,1,38.5,39.5
2023-03-13T04:47:00+09:00,1.9,��,5.4,��,8.9,93.1,0,1,38.5,39.5
2023-03-13T04:48:00+09:00,1.7,��,5.4,��,9,92.7,0,1,38.5,39.5
2023-03-13T04:49:00+09:00,1.6,��,5.4,��,9,92.4,0,1,38.5,39.5
2023-03-13T04:50:00+09:00,1.6,��,5.4,��,9,92,0,1,38.5,39.5
2023-03-13T04:51:00+09:00,1.4,��,3.5,��쓌,9,91.5,0,1,38.5,39.5
2023-03-13T04:52:00+09:00,1.3,��,3.5,��쓌,9,91.3,0,1,38.5,39.5
2023-03-13T04:53:00+09:00,1.3,��,3.5,��쓌,8.8,90.9,0,1,38.5,39.5
2023-03-13T04:54:00+09:00,1.4,��쐼,4.3,�k,8.6,90.7,0,1,38.5,39.5
2023-03-13T04:55:00+09:00,1.6,�쐼,4.3,�k,8.6,91.1,0,1,38.5,39.5
2023-03-13T04:56:00+09:00,1.7,���k��,4.3,�k,8.5,91.7,0,1,38.5,39.5
2023-03-13T04:57:00+09:00,1.9,�k,4.3,�k,8.5,92.4,0,1,38.5,39.5
2023-03-13T04:58:00+09:00,2.1,�k,4.7,�k�k��,8.5,93.1,0,1,38.5,39.5
2023-03-13T04:59:00+09:00,2.2,�k,4.7,�k�k��,8.4,93.6,0,1,38.5,39.5
2023-03-13T05:00:00+09:00,2.2,�k,4.7,�k�k��,8.5,94.3,0,1,38.5,39.5
2023-03-13T05:01:00+09:00,2.2,�k,4.7,�k�k��,8.5,94.8,0,1,38.5,39.5
2023-03-13T05:02:00+09:00,2.3,�k�k��,4.7,�k�k��,8.5,95.1,0,1,38.5,39.5
2023-03-13T05:03:00+09:00,2.4,�k�k��,4.7,�k�k��,8.7,95.3,0,1,38.5,39.5
2023-03-13T05:04:00+09:00,2.4,�k�k��,4.7,�k�k��,8.7,95.5,0,1,38.5,39.5
2023-03-13T05:05:00+09:00,2.3,�k�k��,4.7,�k�k��,8.8,95.5,0,1,38.5,39.5
2023-03-13T05:06:00+09:00,2.1,�k��,4.7,�k�k��,8.8,95.4,0,1,38.5,39.5
2023-03-13T05:07:00+09:00,1.9,�k��,4.7,�k�k��,8.8,95.3,0,1,38.5,39.5
2023-03-13T05:08:00+09:00,1.6,�k��,3.9,�k�k��,8.8,95.2,0,1,38.5,39.5
2023-03-13T05:09:00+09:00,1.4,���k��,3.1,�k��,8.8,95.2,0,1,38.5,39.5
2023-03-13T05:10:00+09:00,1.2,���k��,2.9,�k��,8.7,95.1,0,1,38.5,39.5
2023-03-13T05:11:00+09:00,1.1,���k��,2.9,�k��,8.7,95.1,0,0.5,38.5,39.5
2023-03-13T05:12:00+09:00,1,��,2.9,�k��,8.6,95.1,0,0.5,38.5,39.5
2023-03-13T05:13:00+09:00,0.8,��,2.9,�k��,8.5,94.8,0,0.5,38.5,39.5
2023-03-13T05:14:00+09:00,0.6,���쓌,2.9,�k��,8.5,94.8,0,0.5,38.5,39.5
2023-03-13T05:15:00+09:00,0.4,�쓌,2.3,���k��,8.5,95,0,0.5,38.5,39.5
2023-03-13T05:16:00+09:00,0.3,��쓌,1.2,�k��,8.5,95.2,0,0.5,38.5,39.5
2023-03-13T05:17:00+09:00,0.3,��,1.2,�k��,8.5,95.3,0,0.5,38.5,39.5
2023-03-13T05:18:00+09:00,0.3,��,1.2,�k��,8.5,95.4,0,0.5,38.5,39.5
2023-03-13T05:19:00+09:00,0.3,��,1.2,�k��,8.6,95.6,0,0.5,38.5,39.5
2023-03-13T05:20:00+09:00,0.3,��,1,���쐼,8.5,95.7,0,0.5,38.5,39.5
2023-03-13T05:21:00+09:00,0.4,��쐼,1.3,���쐼,8.5,95.5,0,0.5,38.5,39.5
2023-03-13T05:22:00+09:00,0.4,�쐼,1.3,���쐼,8.4,95.6,0,0.5,38.5,39.5
2023-03-13T05:23:00+09:00,0.5,�쐼,1.5,�쐼,8.4,95.6,0,0.5,38.5,39.5
2023-03-13T05:24:00+09:00,0.6,�쐼,1.5,�쐼,8.4,95.7,0,0.5,38.5,39.5
2023-03-13T05:25:00+09:00,0.7,�쐼,1.5,�쐼,8.4,95.8,0,0.5,38.5,39.5
2023-03-13T05:26:00+09:00,0.8,�쐼,1.7,���쐼,8.4,95.9,0,0.5,38.5,39.5
2023-03-13T05:27:00+09:00,0.9,�쐼,1.7,���쐼,8.5,95.9,0,0.5,38.5,39.5
2023-03-13T05:28:00+09:00,0.9,�쐼,1.7,���쐼,8.5,96,0,0.5,38.5,39.5
2023-03-13T05:29:00+09:00,0.9,�쐼,1.7,���쐼,8.5,96,0,0.5,38.5,39.5
2023-03-13T05:30:00+09:00,0.9,�쐼,1.7,���쐼,8.5,96,0,0.5,38.5,39.5
2023-03-13T05:31:00+09:00,0.8,�쐼,1.7,���쐼,8.5,96.1,0,0.5,38.5,39.5
2023-03-13T05:32:00+09:00,0.8,�쐼,1.7,���쐼,8.7,96.3,0,0.5,38.5,39.5
2023-03-13T05:33:00+09:00,0.7,��쐼,1.7,���쐼,8.7,96.3,0,0.5,38.5,39.5
2023-03-13T05:34:00+09:00,0.7,��,1.7,���쐼,8.6,96.2,0,0.5,38.5,39.5
2023-03-13T05:35:00+09:00,0.7,��쓌,1.7,���쐼,8.5,96,0,0.5,38.5,39.5
2023-03-13T05:36:00+09:00,0.6,���쓌,1.3,�k��,8.6,96,0,0,38.5,39.5
2023-03-13T05:37:00+09:00,0.6,��,1.5,�k��,8.6,96.1,0,0,38.5,39.5
2023-03-13T05:38:00+09:00,0.6,���k��,1.5,�k��,8.7,96.1,0,0,38.5,39.5
2023-03-13T05:39:00+09:00,0.6,���k��,1.5,�k��,8.7,96.2,0,0,38.5,39.5
2023-03-13T05:40:00+09:00,0.6,�k��,1.5,�k��,8.7,96.3,0,0,38.5,39.5
2023-03-13T05:41:00+09:00,0.7,�k��,1.5,�k��,8.7,96.2,0,0,38.5,39.5
2023-03-13T05:42:00+09:00,0.8,�k��,1.8,���k��,8.7,96,0,0,38.5,39.5
2023-03-13T05:43:00+09:00,0.8,�k��,1.8,���k��,8.6,96,0,0,38.5,39.5
2023-03-13T05:44:00+09:00,0.8,�k��,1.8,���k��,8.6,95.9,0,0,38.5,39.5
2023-03-13T05:45:00+09:00,0.9,�k��,2.3,���k��,8.6,96,0,0,38.5,39.5
2023-03-13T05:46:00+09:00,1,�k��,2.3,���k��,8.6,95.9,0,0,38.5,39.5
2023-03-13T05:47:00+09:00,1.1,�k��,2.3,���k��,8.6,95.9,0,0,38.5,39.5
2023-03-13T05:48:00+09:00,1.2,���k��,2.4,���k��,8.5,95.9,0,0,38.5,39.5
2023-03-13T05:49:00+09:00,1.2,���k��,2.4,���k��,8.6,95.9,0,0,38.5,39.5
2023-03-13T05:50:00+09:00,1.3,���k��,2.4,���k��,8.7,96.1,0,0,38.5,39.5
2023-03-13T05:51:00+09:00,1.3,���k��,2.4,���k��,8.6,96.1,0,0,38.5,39.5
2023-03-13T05:52:00+09:00,1.2,���k��,2.4,���k��,8.7,96.1,0,0,38.5,39.5
2023-03-13T05:53:00+09:00,1.1,��,2.4,���k��,8.7,96.1,0,0,38.5,39.5
2023-03-13T05:54:00+09:00,1,��,2.4,���k��,8.8,96.2,0,0,38.5,39.5
2023-03-13T05:55:00+09:00,0.9,��,2.4,���k��,8.7,96.1,0,0,38.5,39.5
2023-03-13T05:56:00+09:00,0.9,��,2.4,���k��,8.7,96,0,0,38.5,39.5
2023-03-13T05:57:00+09:00,0.8,��,2.4,���k��,8.7,96,0,0,38.5,39.5
2023-03-13T05:58:00+09:00,0.7,��,2.1,���k��,8.6,95.9,0,0,38.5,39.5
2023-03-13T05:59:00+09:00,0.7,���쓌,1.6,��쐼,8.6,95.8,0,0,38.5,39.5
2023-03-13T06:00:00+09:00,0.8,�쓌,1.8,��쐼,8.5,95.7,0,0,38.5,39.5
2023-03-13T06:01:00+09:00,0.9,�쓌,2,��,8.5,95.6,0,0,38.5,39.5
2023-03-13T06:02:00+09:00,1,��쓌,2,��,8.4,95.6,0,0,38.5,39.5
2023-03-13T06:03:00+09:00,1.1,��쓌,2,��,8.4,95.7,0,0,38.5,39.5
2023-03-13T06:04:00+09:00,1.1,��,2,��,8.4,95.8,0,0,38.5,39.5